Wind_Speed
33 35 34 32 32 34 35 35 35 32 29 29 30 30 30 31 30 28 29 31 30 29 28 28 28 27 26 26 26 26 26 26 25 22 20 16 13 12 12 12 13 15 17 18 18 19 19 19 19 19 19 18 18 17 17 17 17 17 17 18 17 17 16 14 13 17 17 17 21 24 22 22 24 26 25 24 24 22 21 21 22 23 24 25 26
33 34 33 32 34 35 34 34 34 32 28 28 29 29 29 31 31 29 29 30 30 30 29 28 29 28 27 26 26 27 26 26 26 24 23 21 17 14 13 13 13 14 15 17 17 17 17 17 18 19 19 19 20 19 17 16 15 15 16 16 16 17 18 17 15 16 18 17 18 21 24 24 25 26 25 25 24 24 24 25 26 26 27 27 28
33 35 35 34 35 35 33 31 31 31 29 28 29 28 28 29 31 32 30 28 29 31 29 28 29 28 27 27 27 27 26 26 26 25 25 25 22 19 17 16 15 15 16 17 17 17 16 15 16 17 16 16 19 20 18 16 16 15 15 15 17 17 18 20 18 16 19 19 16 16 18 19 23 27 27 27 27 27 27 28 29 29 30 30 30
32 35 36 35 33 33 32 30 29 29 29 28 28 28 26 25 29 32 30 26 27 30 30 29 28 28 28 27 27 27 27 26 25 25 25 25 24 23 22 20 19 18 19 19 18 18 18 18 17 15 14 14 16 18 17 17 17 17 16 17 18 19 19 20 22 19 18 19 19 19 20 21 25 28 27 27 29 29 29 30 30 31 32 32 32
32 34 35 33 31 31 31 30 29 29 30 28 28 28 26 24 27 30 29 26 25 27 29 29 29 28 28 28 28 28 28 27 26 26 25 25 25 24 23 23 23 23 23 23 21 20 20 20 18 15 14 15 16 16 16 16 16 16 17 18 19 20 19 20 22 21 19 19 21 22 23 25 27 28 28 26 25 26 28 30 30 31 32 32 31
32 33 33 32 30 31 31 30 29 30 31 29 27 28 26 24 26 28 28 27 25 25 27 29 29 29 29 28 28 29 28 28 28 27 26 25 25 25 24 24 25 25 24 23 22 22 22 22 20 18 17 17 18 17 15 15 15 14 16 19 18 17 17 18 19 18 19 21 21 21 21 22 22 25 27 26 22 22 24 26 26 28 32 33 31
32 33 33 32 30 31 31 31 31 31 31 30 28 27 27 26 26 27 28 27 25 25 25 27 29 30 30 29 29 29 29 29 29 29 28 26 26 26 25 25 24 25 25 24 22 21 22 22 21 21 21 21 21 19 18 17 16 15 16 17 16 15 15 17 17 18 19 20 21 21 20 19 19 20 22 24 24 23 25 24 22 24 29 31 30
34 34 33 31 30 31 32 32 32 32 32 34 32 28 27 28 27 27 27 27 27 26 25 25 27 29 30 30 30 29 30 30 30 30 30 29 28 27 26 25 24 24 25 24 23 22 22 21 20 20 22 24 24 22 21 20 17 16 15 15 15 15 16 17 18 20 20 20 21 21 20 20 19 17 16 16 18 20 20 19 18 21 27 29 30
37 34 32 31 31 34 35 33 33 34 35 36 35 31 28 28 27 27 28 29 28 27 25 24 25 27 28 29 29 28 29 30 31 31 30 30 29 26 25 25 25 24 23 23 22 23 24 21 20 20 21 25 25 24 24 23 21 19 17 15 15 16 17 17 19 21 21 20 21 21 21 20 18 18 15 12 14 18 17 15 16 20 25 29 34
38 33 32 34 34 38 40 37 35 35 35 36 36 33 29 28 28 28 30 30 29 27 25 24 24 25 26 27 27 27 28 31 32 32 31 30 28 25 24 25 26 24 23 23 22 23 24 23 22 22 24 26 26 26 26 26 25 25 23 20 19 18 18 19 21 22 21 21 20 19 20 20 18 19 18 16 16 16 15 14 15 19 23 27 34
36 34 34 34 36 40 42 38 35 35 36 35 36 36 33 29 29 29 30 30 29 27 26 26 26 25 24 24 25 26 29 33 34 33 33 32 29 25 23 23 25 25 24 24 24 23 23 22 22 23 25 27 27 27 27 27 27 27 26 26 24 23 22 22 22 24 23 23 23 21 21 21 21 20 19 19 15 13 15 14 12 20 25 23 26
35 34 32 31 35 40 38 35 34 34 36 36 36 37 35 31 29 29 30 30 29 28 27 28 28 26 24 24 24 25 29 33 34 34 33 33 31 28 24 21 21 23 23 23 23 23 22 21 20 21 25 27 26 26 27 28 28 27 27 27 27 27 27 26 25 25 25 25 25 26 24 23 24 21 19 20 17 15 18 11 8 24 33 26 26
33 31 29 30 36 38 34 32 33 33 36 36 36 36 34 31 30 29 29 29 28 28 28 28 27 27 26 25 25 26 27 31 34 35 34 33 32 30 27 23 21 22 22 22 23 23 23 22 21 22 25 27 27 27 27 27 28 27 27 27 28 28 29 29 29 29 29 28 27 28 26 23 24 22 21 25 25 23 19 7 5 27 38 32 35
30 29 29 32 36 36 34 34 34 34 35 36 34 33 32 32 30 28 27 27 27 28 29 27 27 28 28 28 27 26 27 30 33 34 34 33 32 31 30 27 24 23 23 23 24 24 25 25 24 24 25 26 27 28 27 27 26 23 22 23 25 26 27 28 29 30 32 33 32 32 30 27 28 27 27 31 31 29 26 15 13 29 39 37 40
29 29 29 31 34 34 34 34 32 32 33 34 33 32 31 31 30 28 26 26 27 30 30 28 27 29 30 29 27 26 28 31 33 33 33 33 31 30 31 30 28 25 24 25 26 27 28 28 27 26 26 25 27 27 26 25 23 20 19 20 21 22 22 24 26 27 29 31 33 34 34 33 33 30 27 29 28 28 29 23 18 24 30 31 36
27 29 29 30 32 33 34 33 31 30 31 31 31 30 29 30 31 29 27 25 25 27 28 28 27 28 29 28 27 27 28 31 33 34 33 32 31 30 32 33 31 28 26 26 27 29 30 29 27 27 27 28 29 29 28 27 23 21 21 21 21 21 21 21 23 26 28 30 31 33 33 32 32 30 29 29 30 31 31 29 26 26 25 24 29
27 29 30 30 31 32 32 32 30 30 30 29 29 29 29 30 30 29 27 25 23 24 25 26 26 27 27 27 27 28 28 30 33 34 33 32 31 31 32 33 32 30 29 28 28 29 31 31 29 28 28 30 31 30 29 28 26 24 23 22 22 22 22 21 22 25 27 29 29 30 31 31 31 30 29 29 30 31 31 31 31 29 24 21 21
29 30 30 30 30 31 32 32 31 30 29 29 29 29 28 29 29 28 27 26 25 24 24 25 25 26 27 27 28 28 28 29 33 34 34 33 32 32 33 33 31 30 29 29 29 31 32 33 32 30 30 31 32 31 30 29 27 26 25 23 23 23 22 21 21 22 23 24 26 27 28 28 28 29 31 32 31 29 28 29 31 28 23 21 21
30 31 31 30 31 32 33 32 32 31 29 29 29 29 29 28 28 27 27 26 25 24 23 23 23 24 26 27 29 29 28 27 30 33 34 34 33 33 33 31 29 28 28 27 28 30 32 34 34 34 34 34 33 31 30 29 29 28 25 23 24 24 23 21 21 21 21 22 23 23 23 25 29 32 33 32 28 25 23 24 26 26 24 23 24
30 30 31 31 32 32 32 32 33 31 29 30 30 30 29 28 26 25 25 24 24 23 22 22 22 23 23 24 27 28 27 27 29 32 34 34 33 34 33 30 27 26 26 26 26 27 28 30 33 35 35 34 33 31 31 30 31 30 26 23 23 23 21 20 20 21 22 22 22 23 26 31 32 28 24 21 19 18 18 19 19 21 22 24 25
30 31 31 30 30 31 30 31 33 31 30 31 30 27 26 25 24 24 24 23 23 23 22 22 21 21 22 23 24 25 26 27 29 31 33 33 33 33 34 32 29 26 25 25 26 25 24 26 30 33 33 31 29 29 28 29 30 31 29 26 25 25 23 22 22 24 26 27 29 30 31 30 25 19 16 16 14 13 13 13 14 17 19 22 25
34 33 31 28 27 28 28 29 31 29 27 27 26 25 24 24 23 23 23 23 22 22 22 21 21 20 20 21 22 23 25 28 29 30 32 32 32 33 34 34 32 30 26 24 25 25 24 25 30 32 30 28 27 26 25 26 27 29 30 28 27 27 27 27 28 31 31 31 30 28 24 20 16 15 14 13 12 13 14 13 14 15 17 19 21
34 30 29 27 26 26 26 27 29 27 25 26 27 26 24 23 22 22 22 22 22 22 23 23 23 22 21 22 23 23 25 28 31 31 32 32 33 33 34 34 35 33 29 25 25 26 25 27 31 31 29 27 26 25 24 24 24 25 25 24 23 24 26 28 29 29 26 23 20 18 16 15 14 13 13 13 14 17 18 16 16 16 16 17 19
31 29 29 27 26 26 25 27 28 27 25 27 28 26 24 23 22 23 24 23 22 23 24 23 23 24 23 23 24 24 24 26 29 32 33 33 33 34 34 34 35 35 33 29 26 25 24 27 30 30 28 27 26 24 23 22 22 22 20 19 20 21 22 23 22 20 19 17 15 13 12 12 12 12 14 16 17 18 17 17 17 16 16 18 20
31 30 28 26 26 26 24 25 27 27 26 27 27 26 24 23 22 23 24 24 23 23 24 23 23 23 23 23 23 23 22 22 24 28 31 33 33 33 33 33 33 34 36 34 30 26 25 26 28 28 26 25 23 22 22 21 20 19 18 18 18 18 17 16 16 16 15 13 11 10 9 10 12 14 15 16 15 15 16 16 17 17 16 17 20
29 26 24 24 25 25 23 24 25 26 25 25 26 26 25 23 22 23 23 23 23 24 24 23 23 23 23 23 23 21 19 20 21 23 27 30 31 31 32 32 32 32 34 35 34 30 28 27 27 26 24 22 20 19 19 19 17 17 17 17 15 14 14 14 14 14 12 9 8 9 9 10 12 13 14 14 13 13 14 15 16 16 15 16 20
30 28 24 22 22 23 23 23 22 22 23 23 23 24 24 23 22 21 22 23 23 24 24 24 23 22 22 22 23 20 18 18 19 20 23 27 30 31 31 31 32 33 35 36 36 34 31 28 26 23 21 18 17 16 16 15 15 15 15 14 14 13 14 14 14 12 10 9 8 9 9 9 10 10 11 12 12 12 13 13 14 15 16 16 19
29 29 27 24 23 23 23 22 21 20 20 21 21 21 22 22 22 22 23 24 24 24 24 24 23 23 22 21 21 19 18 18 19 19 22 25 27 29 31 31 32 34 34 35 36 35 31 25 20 18 17 15 13 13 13 14 14 14 14 13 13 13 13 13 12 10 8 7 7 6 6 6 7 8 9 10 11 11 11 12 13 15 16 17 19
26 24 24 23 23 24 24 23 22 18 17 20 22 22 22 23 22 22 22 24 26 24 22 22 22 21 21 20 20 18 16 18 22 24 26 26 26 27 29 30 31 31 32 33 32 27 22 19 16 15 16 15 15 14 14 14 14 13 13 13 11 11 11 10 8 6 5 4 4 4 5 5 6 7 8 10 11 11 11 13 14 15 16 18 19
20 19 18 17 18 21 20 20 18 16 17 21 23 22 21 21 22 21 20 23 27 27 25 24 23 22 21 21 22 22 20 20 24 26 26 25 25 26 26 27 27 27 29 30 26 19 16 17 17 17 18 17 15 16 16 15 14 13 12 12 10 9 8 6 4 4 3 3 3 4 5 5 5 6 7 9 11 12 12 13 13 13 14 16 18
12 13 12 12 14 16 15 14 15 15 17 21 23 21 18 17 19 20 20 21 24 26 27 27 26 25 23 22 23 26 26 25 25 25 23 22 22 23 24 25 24 24 25 25 22 17 16 18 17 18 19 17 15 16 15 13 11 10 9 9 7 6 5 4 2 2 3 3 4 4 5 5 5 5 6 8 9 11 12 13 12 13 13 15 16
10 10 9 11 13 12 10 11 12 13 15 18 19 18 16 13 12 14 16 18 20 22 25 26 26 27 26 24 23 25 25 25 26 25 23 21 19 20 22 23 22 21 20 19 18 16 16 18 17 17 17 14 13 14 12 10 9 8 7 6 6 4 4 3 2 2 3 3 3 4 4 4 5 5 6 6 7 9 11 11 11 12 13 14 15
11 10 8 8 9 9 8 9 10 11 13 14 14 15 15 13 11 11 11 12 14 16 18 20 22 24 25 24 23 23 23 23 24 23 21 19 17 16 17 17 15 15 15 16 16 15 14 14 13 13 13 13 12 11 10 9 9 8 6 6 5 4 4 3 2 2 2 3 3 3 4 4 5 5 4 5 7 8 9 9 9 11 12 12 13
10 8 7 7 7 7 7 8 9 10 11 12 12 13 14 13 12 12 11 9 8 8 9 11 14 17 19 20 20 20 20 20 18 18 17 15 13 13 13 12 11 12 13 13 13 14 14 13 14 14 14 13 11 10 9 9 8 6 5 5 5 4 4 3 3 2 2 2 3 3 4 4 4 4 4 5 6 7 7 7 7 9 9 10 12
8 8 7 7 7 6 6 7 8 8 9 10 11 11 12 12 11 11 10 8 7 7 4 2 3 6 9 11 12 13 12 10 9 8 8 7 9 12 14 16 17 15 12 11 11 13 14 15 15 14 13 12 10 10 9 8 7 6 5 5 5 5 4 3 2 1 1 2 2 3 4 4 3 4 4 5 6 6 6 6 6 6 7 8 9
8 7 7 6 6 6 6 7 7 7 8 9 9 9 10 10 10 10 8 9 11 11 10 9 9 8 5 6 7 7 9 10 12 13 14 15 16 18 21 22 21 19 16 15 15 15 13 12 10 9 10 10 9 8 8 7 6 6 5 4 3 3 2 2 2 1 1 2 3 3 3 3 3 4 4 5 5 5 5 6 5 5 5 6 7
7 6 6 6 6 7 6 6 7 8 8 8 8 9 10 10 11 12 12 12 14 15 15 16 18 20 20 19 20 21 21 22 22 22 20 18 18 20 21 22 21 20 18 16 15 15 13 11 9 8 9 9 7 7 6 5 5 5 4 3 2 1 1 2 2 1 1 1 2 2 3 3 3 4 4 4 4 4 5 6 5 4 5 6 7
8 7 6 6 6 7 7 7 8 9 11 11 11 12 12 12 12 14 15 16 17 18 18 18 18 22 26 26 26 28 28 26 25 24 21 19 20 22 22 21 18 17 16 14 13 12 11 9 7 7 8 7 6 6 6 5 5 4 3 3 2 1 1 1 1 1 1 1 1 2 2 2 3 3 3 4 4 4 5 6 5 5 5 6 6
8 7 7 8 8 8 8 9 9 9 11 14 15 16 17 15 14 14 16 18 18 18 18 17 16 19 23 24 25 28 29 27 24 22 20 20 21 23 21 19 17 15 14 12 10 10 10 8 6 6 7 7 7 6 6 6 5 3 3 2 1 1 1 1 1 1 0 1 1 2 2 2 3 3 3 3 4 5 5 6 5 5 6 6 6
7 7 8 9 9 9 10 10 10 10 11 12 14 16 16 15 14 14 14 16 16 16 16 16 15 14 15 16 18 21 23 22 20 20 21 22 23 23 22 21 19 17 15 13 11 11 11 10 9 9 9 9 8 7 7 5 4 3 3 2 1 1 1 1 1 1 1 1 1 2 2 2 3 3 3 3 4 4 5 6 6 6 6 7 7
7 8 10 10 10 10 11 11 12 12 13 13 12 13 13 13 14 15 15 17 20 21 21 21 20 18 17 18 21 24 25 22 20 21 23 24 23 22 21 21 20 19 18 16 14 13 12 11 11 10 10 9 9 8 6 5 4 3 2 2 2 2 2 2 2 2 1 1 2 2 3 3 3 3 3 4 5 5 5 6 6 6 6 6 7
8 9 10 9 9 10 11 12 13 14 15 15 14 13 13 14 16 18 19 19 21 23 24 25 26 25 25 26 28 30 29 26 23 23 23 23 22 21 21 20 19 18 18 17 15 13 12 12 11 10 10 9 9 8 7 7 6 5 4 4 3 4 3 3 3 3 2 2 2 3 4 4 4 4 4 4 4 5 5 5 5 6 6 6 6
9 10 10 9 9 9 10 12 14 15 16 17 16 15 15 15 16 17 18 18 19 22 24 25 27 29 29 28 29 30 30 28 27 26 26 25 23 22 22 21 19 18 16 15 15 14 13 13 13 12 12 11 11 10 10 10 9 8 7 7 6 6 5 5 6 6 5 3 3 4 5 5 4 4 5 5 4 5 5 5 5 6 6 6 5
10 10 10 10 10 10 10 12 15 16 17 17 17 16 16 16 15 16 18 19 20 23 24 24 26 28 28 27 28 30 29 29 28 28 27 26 24 23 23 22 20 18 17 16 15 14 14 15 15 14 14 13 13 13 12 11 11 10 9 9 8 7 6 7 7 8 8 7 6 6 6 6 5 5 5 5 5 5 6 6 6 6 6 6 5
9 10 10 10 10 10 10 12 14 17 18 18 18 17 17 17 16 16 17 18 19 20 21 22 24 25 24 24 27 29 29 28 27 27 27 26 25 24 23 22 20 19 18 17 16 16 17 17 17 16 16 15 14 14 13 12 12 11 11 10 9 9 8 7 7 7 8 8 8 7 7 6 5 5 5 5 5 5 6 7 7 7 6 6 5
9 10 11 11 10 10 9 10 12 14 16 17 17 16 16 16 16 16 16 16 17 18 19 19 20 22 23 24 27 29 29 28 28 27 26 26 25 24 23 22 20 19 19 18 18 18 18 18 17 17 17 16 15 14 14 14 13 13 12 12 10 9 9 9 8 7 7 8 8 8 7 6 5 6 6 6 5 5 6 6 7 7 6 6 5
10 11 12 11 11 10 10 11 13 15 16 17 17 17 16 16 17 18 18 18 17 18 17 17 17 19 20 21 23 26 28 29 29 28 27 26 25 24 23 22 21 20 20 19 19 19 19 19 18 17 17 16 16 15 15 15 15 15 14 14 12 10 10 9 8 8 8 8 8 7 7 6 6 6 6 6 5 5 5 6 6 6 5 5 5
12 12 12 12 12 11 10 11 14 17 18 18 17 16 16 16 17 19 20 20 20 20 20 19 18 18 17 17 19 23 26 28 28 28 27 26 25 24 23 23 23 22 21 20 19 19 18 18 18 17 16 16 16 16 15 15 15 15 15 15 13 12 11 10 9 8 8 8 8 8 7 7 7 6 6 6 6 5 5 5 6 6 5 5 5
15 15 14 13 13 11 10 10 13 15 17 18 18 17 16 16 16 16 18 19 19 20 21 21 22 22 21 19 19 21 24 26 27 28 28 27 26 25 24 24 23 23 22 21 20 19 18 18 17 16 16 15 15 15 15 14 14 14 14 14 13 12 11 10 9 8 8 7 7 7 7 7 7 7 6 6 6 6 5 5 6 6 5 5 5
20 20 19 17 15 13 11 11 13 14 16 17 18 18 17 17 17 17 17 18 19 19 20 20 20 21 22 21 19 18 19 20 21 23 24 26 26 26 25 25 24 23 23 22 21 20 19 18 17 17 16 15 15 15 14 14 13 13 13 12 11 10 10 9 9 8 8 7 7 6 6 6 6 6 6 6 6 6 6 6 6 5 5 5 5
24 25 24 22 21 20 18 17 18 20 21 22 21 20 19 19 19 18 17 17 18 20 20 19 18 18 18 18 18 17 16 15 15 16 19 23 26 26 26 25 24 24 23 22 21 20 19 19 18 17 17 17 17 16 16 15 14 13 12 10 8 8 8 8 9 9 9 8 7 6 6 6 6 6 6 7 7 7 6 6 6 5 5 5 5
Wind_Direction
197 200 200 198 201 204 205 208 210 209 208 210 213 215 217 219 220 220 224 228 230 231 233 236 238 240 240 239 240 242 245 246 246 244 240 237 234 233 237 239 241 244 247 249 252 256 259 261 262 265 266 267 268 267 268 272 273 270 268 265 262 259 254 244 254 272 274 273 280 286 288 289 293 295 296 296 298 298 295 291 289 286 282 281 282
195 198 198 198 202 204 205 207 209 208 206 209 212 213 215 219 220 220 223 228 231 232 234 236 239 241 240 240 242 243 245 245 244 244 243 242 238 234 234 235 238 242 245 246 247 251 256 258 260 264 266 267 268 267 265 263 262 261 263 263 260 260 261 257 256 270 278 279 281 287 291 291 292 295 297 297 297 298 296 293 292 289 286 285 284
194 196 198 200 202 203 203 204 205 204 204 207 210 211 213 216 219 222 224 225 229 232 233 235 238 241 241 241 243 244 245 245 244 244 246 247 244 240 239 238 237 238 242 245 248 250 250 252 256 258 259 262 266 267 264 260 259 257 257 259 260 260 263 264 260 262 274 281 281 284 287 287 290 294 296 297 298 297 294 293 292 290 289 288 286
192 195 198 200 200 200 201 201 201 202 204 207 209 210 210 210 216 222 222 220 225 231 233 234 237 240 240 240 242 243 244 245 244 245 247 248 248 246 246 246 243 244 248 251 253 252 253 256 255 254 253 254 260 263 263 262 263 264 264 263 265 266 265 266 266 263 267 277 280 281 284 286 289 294 294 294 297 297 296 296 294 291 291 290 287
190 192 196 197 197 198 200 199 199 201 203 206 208 208 207 206 212 219 219 217 221 227 231 233 234 237 238 239 241 243 244 244 244 246 247 249 251 250 250 251 251 252 255 257 258 257 259 261 258 254 253 251 256 260 259 261 264 265 267 267 267 269 269 269 270 266 263 269 276 280 284 286 289 294 295 294 294 296 297 297 297 296 296 294 290
188 189 192 194 195 197 198 198 199 202 203 205 206 206 205 205 209 215 216 216 217 221 228 230 232 235 236 237 240 242 244 244 245 247 247 248 252 252 251 253 254 256 258 259 260 261 263 264 262 260 258 255 257 260 258 259 260 257 260 266 269 268 268 270 270 268 264 267 273 276 278 280 283 289 295 295 292 292 294 294 295 297 299 299 295
184 186 190 192 194 195 196 197 199 201 202 204 204 204 205 206 208 212 214 214 215 218 221 226 230 235 237 237 239 241 243 244 245 247 247 247 250 251 251 251 252 255 258 258 258 258 261 263 263 263 264 263 264 264 264 263 262 259 259 264 266 265 269 274 272 270 270 271 276 277 277 278 276 279 289 294 292 291 291 290 289 295 299 298 296
184 186 188 190 193 194 195 197 199 201 203 207 207 204 205 207 208 210 212 213 215 218 218 220 227 232 235 236 237 239 241 243 244 245 246 247 247 248 249 249 250 252 257 259 258 258 258 258 257 259 263 268 270 270 269 266 263 262 262 264 267 265 269 274 273 273 273 274 278 281 284 285 282 279 282 284 285 287 289 287 286 292 297 296 295
187 187 186 191 194 195 196 198 200 203 205 208 209 205 205 207 208 210 213 215 216 218 218 217 220 227 231 233 234 234 236 240 242 242 244 245 245 244 245 247 248 248 252 255 256 258 259 256 253 253 259 268 275 277 277 274 269 266 264 265 269 271 272 274 275 275 275 275 279 283 286 286 287 287 280 269 274 285 289 285 283 291 296 296 295
187 186 189 194 196 199 201 201 201 203 205 208 209 208 207 208 209 211 214 217 218 217 217 215 217 222 226 228 230 231 234 239 241 242 242 243 243 241 241 245 247 247 248 250 252 255 257 257 256 257 262 269 276 280 281 280 277 275 272 269 267 269 272 275 277 278 278 278 280 284 285 286 289 290 284 276 278 285 289 286 288 296 297 294 297
186 188 192 194 196 201 203 202 202 204 205 207 209 210 210 209 210 212 214 217 218 216 216 216 218 221 222 224 226 228 234 240 243 243 244 244 241 238 238 242 245 246 246 248 251 252 254 256 257 260 265 271 275 279 281 281 281 280 279 277 273 269 268 269 273 276 276 277 279 281 282 284 288 290 287 283 280 281 289 293 299 301 296 294 297
187 191 192 191 195 200 201 200 202 204 205 207 209 211 211 209 210 212 213 216 216 215 216 218 221 222 221 222 224 226 234 241 244 244 245 245 243 239 237 238 240 242 243 244 247 250 251 253 254 257 264 269 271 274 277 280 282 282 281 281 279 275 271 266 266 269 271 275 278 280 280 283 287 289 288 287 288 288 287 289 304 296 290 285 283
187 188 188 190 194 197 196 196 199 202 204 207 208 210 209 209 210 211 213 215 214 215 218 219 220 221 220 222 224 225 233 241 245 246 245 245 245 241 238 238 238 240 240 241 244 247 249 252 252 255 262 268 269 269 271 275 279 281 283 282 281 280 277 273 269 267 267 268 272 276 276 277 281 284 286 289 291 290 286 267 263 283 282 278 277
185 184 186 191 194 195 196 198 199 201 204 205 206 207 208 209 211 212 213 213 212 215 218 218 219 220 221 223 225 227 231 238 244 246 246 245 244 242 240 239 239 241 241 242 244 247 250 253 254 256 260 264 268 269 269 270 272 273 275 278 279 280 280 280 278 274 270 267 266 269 271 272 276 280 286 291 291 289 287 273 253 272 279 281 282
182 183 186 190 192 194 196 198 199 200 202 203 204 205 207 208 210 210 211 211 213 216 218 218 219 222 224 225 226 229 233 237 242 245 245 244 242 242 242 240 239 241 242 243 245 249 252 253 254 256 258 259 262 266 266 266 266 266 267 268 271 274 275 277 277 278 278 274 271 273 276 278 280 281 285 291 292 291 290 285 273 276 280 282 285
180 184 187 190 192 194 195 196 197 198 199 201 203 204 205 208 209 209 210 212 214 217 218 219 220 222 225 225 227 231 234 237 240 242 244 244 240 239 240 240 239 240 242 243 245 248 252 252 252 254 256 259 262 265 267 266 263 262 266 268 268 270 271 273 274 277 280 280 280 282 285 287 288 288 290 293 294 293 291 288 286 283 277 275 281
184 187 190 191 192 193 194 194 196 197 198 199 202 204 205 208 209 209 209 211 214 215 217 219 220 223 225 224 225 230 234 237 239 241 242 241 237 235 236 238 238 238 240 242 244 247 251 252 251 252 254 259 263 266 269 267 262 259 262 265 268 271 273 276 276 277 280 283 287 290 293 295 296 297 299 298 297 296 290 285 286 284 278 275 278
187 188 190 191 191 192 194 195 196 197 198 200 202 204 206 208 210 209 210 212 215 217 218 219 220 222 224 224 226 230 234 237 240 241 242 239 236 234 235 235 235 237 239 241 243 247 251 253 253 251 252 258 263 266 267 265 260 258 258 262 267 270 273 276 277 279 282 287 293 297 299 301 301 300 300 298 297 296 288 284 288 287 278 274 278
189 189 189 190 192 194 195 197 198 199 199 201 203 205 207 209 210 209 210 213 216 218 219 219 219 221 224 225 228 231 234 237 241 243 243 240 236 234 233 233 233 235 237 239 242 246 250 253 254 254 254 258 262 265 265 262 258 256 255 258 264 268 271 273 275 279 283 287 293 295 295 296 296 296 296 295 294 293 286 282 284 280 271 271 277
188 188 189 190 193 195 196 198 200 200 201 203 205 206 208 208 208 208 209 212 216 218 219 219 220 223 225 226 228 231 232 234 239 243 244 241 237 234 232 230 231 233 234 236 239 243 246 249 253 256 258 259 261 262 263 260 258 257 254 253 259 263 268 273 274 276 281 284 286 287 288 291 293 293 293 294 294 293 287 282 278 272 269 273 277
185 187 190 191 193 195 197 199 200 201 203 205 205 206 207 207 206 207 209 211 214 217 218 219 222 225 227 227 228 230 232 233 237 241 243 242 239 236 232 230 231 232 232 234 237 241 242 243 249 256 259 260 261 262 262 261 259 258 255 253 257 261 264 270 273 276 279 282 284 286 289 292 293 292 294 296 295 294 289 282 277 274 273 277 282
190 191 191 191 193 195 197 199 201 202 204 204 203 204 206 207 206 207 209 210 212 215 217 219 223 226 228 230 230 230 233 236 238 239 242 243 240 237 234 232 234 233 231 232 235 238 239 241 249 257 260 261 263 263 264 264 262 259 259 261 264 266 266 268 271 274 277 281 284 288 290 291 291 292 295 298 299 300 297 289 286 286 281 278 282
190 190 190 191 193 195 197 199 200 201 202 202 204 206 207 206 205 205 206 207 210 217 220 221 226 231 233 235 235 232 232 237 240 240 241 242 242 240 237 237 237 235 231 231 235 237 238 242 250 258 260 261 264 266 266 267 264 262 265 267 268 268 267 267 268 271 275 280 283 286 286 286 289 295 300 306 306 304 304 304 304 302 293 287 285
188 189 190 192 194 195 197 199 201 202 203 203 205 207 206 204 204 206 209 210 213 221 225 225 227 231 234 237 237 233 230 234 240 242 242 242 242 242 241 240 240 237 233 233 236 238 238 243 251 258 260 261 263 265 266 266 264 264 265 264 262 261 260 263 266 270 276 279 277 276 278 282 291 299 303 305 306 308 315 320 316 308 296 292 290
189 190 191 192 194 195 197 200 201 203 204 203 204 205 205 203 204 207 210 211 214 221 226 224 224 227 231 235 236 233 228 229 235 240 242 242 242 242 243 243 242 239 236 236 238 240 241 246 252 256 259 259 259 259 259 259 257 257 257 254 254 254 255 260 267 270 271 270 268 269 275 286 296 302 305 308 312 320 326 324 316 310 303 299 299
188 189 190 192 194 195 197 200 202 203 204 203 204 206 205 204 204 206 207 209 213 219 223 223 224 226 230 234 237 233 227 225 227 233 239 240 240 241 242 243 243 242 239 237 238 240 243 246 249 252 254 254 253 250 249 249 247 246 247 247 248 250 253 256 259 260 259 259 264 272 282 294 300 304 310 316 319 323 321 316 313 313 311 309 308
190 192 194 193 193 195 197 200 201 202 203 204 206 207 207 206 204 204 204 207 212 218 222 224 225 226 228 233 236 232 227 224 223 224 230 235 237 238 239 239 240 240 237 236 237 239 241 244 247 248 248 246 242 239 237 236 234 235 237 240 242 243 245 245 244 245 248 254 267 277 287 297 304 308 315 318 317 316 314 311 311 313 315 318 317
193 195 196 196 197 199 200 200 201 201 203 205 208 210 209 208 208 208 207 207 210 215 220 222 224 224 224 226 229 228 227 226 222 221 225 229 231 233 234 234 234 235 235 235 234 234 235 236 235 234 231 226 220 219 221 222 224 229 231 232 233 234 234 235 236 239 247 258 268 280 290 295 302 309 313 313 311 312 315 316 315 315 318 323 323
192 195 197 198 201 205 205 203 202 201 200 201 205 209 210 209 212 214 213 211 210 211 214 215 216 218 218 219 222 224 224 228 234 238 238 235 233 231 233 234 233 233 235 234 229 224 221 218 212 208 207 206 203 205 211 215 215 218 219 217 218 221 222 224 228 233 247 264 268 278 286 288 298 310 313 310 308 312 320 324 321 320 322 325 325
185 189 193 195 200 205 206 205 202 201 200 200 202 206 209 211 213 214 215 217 218 217 219 220 220 221 221 223 227 229 230 237 247 251 250 247 243 240 241 242 239 236 235 230 219 207 203 204 203 201 200 199 199 200 203 205 201 199 203 204 203 209 214 215 221 232 243 255 263 272 277 284 301 313 310 305 308 318 328 327 320 320 324 328 329
163 170 178 185 191 194 196 198 198 199 202 202 200 200 203 209 214 215 217 221 222 223 225 228 229 230 231 232 238 243 244 246 251 254 255 254 250 244 242 240 237 235 233 222 206 197 201 204 203 203 202 200 198 195 191 186 181 178 182 187 190 200 207 201 199 223 237 248 259 266 273 286 300 302 298 303 313 324 329 325 321 325 329 332 333
143 146 158 172 179 180 178 179 184 189 193 195 195 194 192 192 200 211 217 220 222 224 226 229 232 235 236 238 243 248 251 250 250 252 253 252 249 243 236 234 233 233 228 213 197 194 201 202 199 196 194 187 182 178 171 164 166 167 166 171 176 183 190 195 208 227 237 244 253 264 273 282 286 284 292 309 320 326 326 323 326 334 335 335 337
141 138 143 154 164 168 165 165 172 177 180 183 189 194 194 191 185 183 192 203 212 218 222 226 231 235 237 238 239 243 250 252 251 251 251 248 246 239 230 226 224 216 203 193 187 188 192 189 179 171 165 160 159 161 159 159 165 167 164 166 168 171 180 195 212 225 238 251 258 265 271 276 281 286 298 312 316 318 318 320 329 337 338 339 342
132 127 132 143 154 163 167 170 173 174 176 182 188 194 202 204 189 170 165 172 183 195 208 219 226 230 234 236 235 236 241 246 247 246 244 241 237 226 209 191 176 173 175 178 180 178 170 157 148 149 152 152 152 155 157 159 161 161 161 165 168 174 185 192 196 203 234 265 267 268 269 273 283 292 299 308 311 309 310 318 334 340 341 343 347
121 117 127 143 152 157 163 168 168 168 175 181 184 190 199 199 182 169 172 171 154 139 132 141 195 220 227 228 227 227 227 228 229 226 215 195 180 171 155 136 130 134 141 142 141 145 146 145 146 151 152 151 151 154 154 156 158 156 160 171 179 182 181 179 177 183 222 258 263 267 271 275 283 290 293 299 306 309 311 319 332 337 338 344 349
112 114 124 138 147 152 156 158 159 161 167 173 178 182 184 180 170 163 159 148 133 121 104 92 91 94 109 130 135 136 133 126 120 118 118 122 132 134 125 117 118 123 127 129 133 137 139 140 141 141 140 141 145 146 144 146 150 150 153 168 185 192 180 161 153 161 207 244 257 264 270 274 278 282 284 289 296 303 307 309 311 318 331 340 341
87 98 111 125 136 140 142 142 148 153 153 153 160 164 158 155 154 147 132 125 123 118 109 105 105 103 103 107 112 113 114 113 113 112 111 116 124 124 118 116 120 123 121 124 131 136 136 135 135 132 129 130 132 133 132 132 133 135 141 151 169 208 194 155 138 147 205 236 252 258 262 267 269 272 277 286 299 306 301 296 296 299 315 328 329
83 90 103 117 121 120 121 124 134 145 145 142 145 146 138 131 132 129 123 121 122 121 120 120 118 114 113 115 117 118 117 114 111 109 110 114 116 116 115 116 116 114 112 112 117 119 117 118 122 121 118 117 119 120 120 116 115 119 126 139 162 198 184 137 113 121 194 240 260 261 270 276 274 278 284 292 310 317 306 298 302 308 314 322 325
76 86 100 111 109 104 106 111 116 124 130 133 138 138 131 124 122 123 124 125 126 126 125 124 120 118 119 121 122 120 117 111 107 106 106 108 108 108 109 108 103 101 102 103 106 107 107 108 111 108 104 105 104 100 98 98 100 105 113 128 156 172 136 101 81 90 127 286 282 272 287 294 286 290 303 306 313 320 313 304 306 310 314 321 325
67 77 87 98 101 99 100 105 107 106 110 117 126 130 130 128 127 125 123 119 115 112 111 109 107 109 115 119 121 118 110 104 103 104 105 104 103 102 103 105 105 107 109 108 109 111 109 106 101 95 93 94 93 90 89 91 93 98 102 108 118 90 56 47 36 28 359 320 311 298 299 310 311 310 315 313 311 315 315 311 304 296 300 312 317
75 79 82 89 98 102 102 103 103 105 108 111 113 116 117 117 116 114 112 110 109 106 103 100 100 106 116 122 122 117 107 101 101 103 103 103 102 101 101 103 106 108 109 109 110 110 106 102 100 95 93 95 95 94 94 91 87 86 79 73 78 63 44 37 31 11 330 305 317 317 314 322 329 327 319 316 317 316 313 309 302 293 293 303 311
81 85 86 86 93 101 105 106 107 108 109 109 109 110 109 108 109 109 110 110 111 109 105 101 103 111 119 124 124 120 113 107 104 103 102 102 103 102 104 106 107 109 110 110 109 109 107 105 104 101 97 97 95 94 95 92 86 81 72 66 68 62 47 36 29 23 5 311 309 332 339 336 332 330 322 316 314 310 306 303 300 297 297 301 306
81 83 82 79 84 96 103 107 110 111 111 108 107 107 106 105 106 108 109 110 110 110 108 106 107 110 115 119 123 121 114 109 107 106 103 104 104 103 104 104 105 107 111 112 111 111 107 103 100 99 97 96 93 91 91 89 86 84 80 74 69 63 56 45 34 30 28 19 2 3 360 349 340 335 328 321 312 303 299 297 296 294 294 295 297
80 78 79 78 81 89 93 96 101 106 108 107 105 103 103 104 106 108 108 108 108 108 109 109 109 109 110 112 114 112 107 104 105 105 103 103 103 101 102 103 104 105 107 108 110 112 110 105 101 99 97 96 94 90 87 85 82 78 74 69 64 59 54 46 36 28 28 29 27 20 8 357 352 344 331 323 315 305 297 293 293 293 293 293 293
80 82 84 83 82 83 85 89 97 103 104 103 101 101 101 102 105 106 107 107 107 106 106 107 108 108 107 106 107 107 105 104 104 103 102 103 102 101 101 103 104 104 104 105 107 111 110 107 104 102 98 95 91 85 79 75 71 67 63 60 55 51 46 42 35 27 24 25 26 19 5 356 354 351 344 333 320 309 301 296 293 292 293 297 300
90 90 89 89 88 88 90 94 99 102 101 99 101 103 104 103 104 105 104 104 105 104 102 102 102 101 100 100 102 104 105 106 104 103 102 102 101 101 102 102 101 101 102 102 103 104 103 102 100 97 93 89 84 79 73 67 63 59 55 50 46 43 39 35 31 29 26 22 18 11 358 342 335 344 350 346 331 319 313 305 298 294 296 302 308
93 94 95 96 96 95 98 102 103 102 100 98 99 101 102 103 104 104 103 102 103 102 100 98 98 97 97 97 98 99 101 101 101 101 101 101 101 102 102 102 101 101 100 101 101 100 99 97 95 92 89 85 79 74 70 65 59 55 50 43 36 32 28 22 19 23 23 16 11 9 360 342 328 332 341 340 333 329 327 321 314 310 307 306 307
93 93 96 100 100 99 101 104 105 104 102 101 101 100 102 103 103 104 105 105 104 102 99 98 97 97 96 96 98 101 102 102 101 102 103 103 103 104 104 104 104 103 101 101 100 98 97 95 93 90 86 82 77 71 66 62 58 53 48 41 33 26 20 13 10 12 10 4 2 4 357 339 326 327 333 333 329 328 326 321 320 321 319 315 312
104 99 96 95 97 99 100 102 104 104 104 104 103 100 99 99 98 100 103 104 103 102 100 99 99 99 98 97 98 100 101 103 104 105 106 107 109 110 109 108 107 107 105 103 100 97 95 94 91 88 84 80 75 70 65 60 55 51 46 41 34 26 19 13 8 4 357 354 359 2 352 334 325 326 331 331 328 325 322 317 316 319 318 314 315
108 103 97 94 94 98 100 101 102 102 102 104 104 102 99 96 95 96 98 99 99 100 99 98 99 101 102 102 102 100 99 101 103 104 105 108 111 112 111 110 108 107 105 103 100 98 96 92 89 87 83 79 74 68 62 56 52 46 40 35 32 28 22 16 12 6 358 355 1 1 352 344 340 336 334 333 329 327 326 324 323 322 317 312 311
103 101 99 97 97 99 99 98 98 98 99 100 102 102 101 99 97 96 96 96 97 98 97 97 98 98 98 100 102 102 101 101 102 103 106 109 111 111 111 109 107 105 103 101 98 96 94 91 88 84 80 76 72 67 60 54 49 43 36 28 24 23 21 19 18 16 13 13 15 11 3 1 359 353 347 342 334 329 331 331 328 324 320 317 315
Height
781 784 787 791 793 796 799 802 805 809 811 814 816 818 821 823 825 828 830 832 834 836 838 839 841 843 845 846 847 849 850 851 853 854 856 857 858 859 859 860 861 861 862 863 864 865 865 866 867 867 868 868 869 869 869 870 870 870 871 871 871 871 871 871 869 864 862 863 862 862 862 861 860 859 858 858 857 857 857 856 855 854 854 853 852
776 780 783 787 789 792 796 799 802 805 808 811 813 816 818 820 823 825 827 829 831 833 835 836 838 840 842 843 844 846 847 849 850 852 853 854 855 856 857 858 859 859 860 860 861 862 863 863 864 865 865 866 866 867 867 868 868 868 869 869 869 869 868 868 868 864 860 859 860 859 859 858 857 856 855 855 855 854 853 852 851 850 850 849 848
771 775 779 782 785 789 793 795 799 802 805 808 810 812 815 817 820 822 824 826 828 830 832 833 835 837 838 840 841 843 845 846 848 849 850 851 852 853 854 855 856 857 857 858 859 860 861 861 862 862 863 863 863 864 864 865 866 866 866 866 866 866 866 865 865 863 859 857 857 857 856 855 854 853 853 852 851 851 850 848 847 846 845 845 844
767 771 774 779 782 786 789 792 795 798 801 804 806 809 812 814 816 818 821 823 825 826 828 830 832 833 835 837 838 840 842 843 845 846 847 848 849 851 852 852 853 854 854 855 856 857 858 858 859 860 861 861 861 861 862 862 863 863 864 864 863 863 863 862 861 861 859 856 854 854 854 853 851 850 850 849 848 847 846 845 844 842 841 841 840
763 766 771 776 779 782 785 788 791 794 797 800 802 805 808 811 813 815 818 820 822 823 825 827 829 830 832 834 835 837 838 840 842 843 844 846 847 848 849 849 850 851 851 852 853 854 855 855 857 858 858 859 859 858 859 860 860 861 861 860 860 860 860 859 858 858 857 854 851 851 851 849 848 847 846 846 845 844 842 841 840 839 838 837 836
758 762 767 772 775 778 781 784 787 790 793 796 799 802 805 807 809 811 814 816 818 820 822 823 825 827 828 830 832 833 835 837 839 840 842 843 844 845 846 846 847 848 848 849 850 851 852 852 854 855 855 855 856 856 856 857 858 859 858 857 857 858 857 857 856 855 854 852 849 848 847 846 845 844 843 843 843 841 840 838 837 836 834 832 832
754 758 762 767 770 773 776 780 782 785 788 792 795 798 801 803 805 807 810 813 815 817 818 820 821 823 825 827 829 830 832 834 835 837 838 840 841 842 843 844 844 845 846 846 847 848 849 849 850 851 851 852 852 853 853 854 855 856 856 855 855 855 855 855 854 853 852 850 848 845 844 843 841 840 840 841 840 839 838 835 834 833 831 828 827
749 753 758 763 766 768 772 775 778 781 784 787 791 794 796 799 801 804 806 809 811 813 815 816 818 820 822 823 825 827 828 830 832 833 835 836 838 839 840 841 842 842 843 844 845 845 846 847 847 848 848 848 849 850 850 850 851 852 853 853 853 853 852 852 851 850 849 848 845 844 842 841 839 838 838 838 837 836 835 834 832 830 827 824 822
745 750 755 758 761 764 768 771 774 778 780 783 787 790 793 795 798 800 802 804 807 809 811 813 815 816 818 819 822 823 825 826 827 829 831 832 834 836 837 838 839 840 840 841 841 842 842 843 844 844 845 845 845 846 846 847 848 849 849 850 850 850 850 849 848 847 846 844 843 841 840 838 838 837 836 835 834 833 833 833 831 828 824 819 815
741 746 750 753 756 760 763 767 770 773 777 779 783 786 789 792 794 796 798 800 803 805 808 810 811 813 814 816 818 819 820 821 822 824 827 829 831 833 834 835 836 837 837 838 838 838 839 840 840 841 841 841 842 842 842 843 843 844 845 846 847 847 847 846 845 843 842 841 840 839 837 835 835 835 834 833 832 831 832 832 830 827 822 816 810
738 742 744 748 752 756 760 763 767 770 773 776 779 782 785 788 790 793 795 797 800 802 804 806 807 809 811 812 814 815 816 816 818 820 823 825 828 830 831 832 833 833 834 834 835 835 836 836 837 837 838 838 838 838 838 839 839 840 841 841 842 843 843 843 842 840 839 837 836 836 834 832 832 832 832 831 830 830 830 831 832 827 820 816 810
734 737 741 745 749 752 756 760 763 766 769 772 775 778 782 784 787 789 791 793 796 798 800 802 803 806 808 809 810 811 811 812 814 816 818 821 824 826 828 829 830 830 830 831 831 832 832 833 833 834 834 834 835 835 835 835 835 836 837 837 837 838 838 839 838 837 836 834 833 832 831 830 829 828 829 828 827 828 827 830 834 826 816 814 810
730 734 738 742 745 749 753 757 760 763 765 769 772 775 778 780 782 785 787 790 792 794 796 798 800 802 804 805 806 807 807 808 809 812 814 817 819 822 825 826 826 827 827 827 828 828 829 829 830 830 830 830 831 832 832 832 832 832 833 833 833 833 833 833 833 833 832 831 829 828 828 828 826 825 826 825 824 825 824 827 831 823 811 809 806
728 732 736 739 742 747 750 753 756 759 762 765 769 771 774 776 779 782 784 786 788 790 792 794 796 797 799 800 802 803 804 804 805 807 810 812 815 818 820 822 823 823 824 824 824 824 825 826 826 826 827 827 827 828 828 829 829 830 830 830 829 828 828 828 828 827 827 827 825 824 824 824 823 822 823 822 821 821 822 823 823 816 808 805 802
724 728 732 736 740 744 746 749 753 756 759 762 765 768 770 772 775 778 781 782 784 786 788 790 792 793 795 797 798 799 800 801 802 804 806 808 812 814 816 818 819 819 820 820 820 821 821 822 822 822 823 823 823 824 825 826 826 827 827 827 826 826 825 824 824 823 822 822 820 819 819 820 820 819 820 820 819 819 819 819 817 812 807 803 799
722 726 729 733 736 739 742 746 749 752 756 759 761 764 766 768 771 774 776 779 780 782 784 786 788 790 791 793 795 795 796 797 798 800 802 805 808 810 812 813 814 815 816 816 817 817 817 818 818 818 819 819 819 820 821 822 823 824 824 824 823 823 822 821 821 819 818 817 816 815 815 815 815 816 816 816 816 816 816 816 813 810 806 802 796
719 723 726 729 732 735 739 742 746 749 752 755 757 760 762 765 767 770 773 775 777 778 780 782 784 786 787 789 790 791 791 793 794 796 799 801 804 806 807 809 810 811 812 812 813 813 813 814 814 815 815 815 815 816 818 819 820 821 820 820 820 819 818 818 817 816 815 814 813 812 812 812 811 811 811 812 812 812 812 810 808 807 803 798 793
715 718 722 725 729 732 736 739 742 745 748 750 753 756 758 761 763 766 768 771 773 775 776 778 780 781 783 784 786 787 788 789 790 792 795 797 800 802 803 805 806 806 807 809 809 809 809 809 810 811 811 810 811 812 814 815 816 817 817 817 816 815 815 815 814 813 812 811 810 810 809 808 808 807 807 808 808 808 808 805 804 803 800 796 791
710 713 718 722 725 729 733 736 739 741 743 746 749 751 754 757 759 762 764 767 769 771 773 774 776 777 778 780 781 783 784 785 786 788 790 793 795 797 800 801 801 802 803 804 805 804 804 805 805 806 806 806 807 808 810 811 812 813 813 814 813 812 811 812 811 810 810 809 809 808 807 806 805 804 804 804 804 804 803 801 800 799 796 793 791
706 710 715 718 722 726 729 732 735 737 740 742 745 747 750 753 756 758 761 763 766 767 769 771 772 773 774 776 777 778 779 781 782 783 785 788 790 793 795 796 797 798 799 800 800 800 800 800 800 800 801 801 803 804 805 807 808 809 810 810 809 808 808 809 808 808 807 807 807 806 805 804 803 802 801 800 800 799 798 797 796 795 793 790 788
704 708 712 716 719 722 725 728 731 734 736 739 741 744 747 750 752 755 757 760 762 763 765 767 768 769 771 772 773 774 775 776 778 779 781 783 785 788 790 791 792 793 794 795 795 795 795 795 795 795 796 797 798 799 801 802 803 804 805 806 805 806 806 806 806 805 804 804 803 803 802 801 800 800 799 798 797 796 795 794 793 792 791 788 785
702 706 710 714 717 720 723 725 728 731 734 736 739 741 744 746 749 751 754 756 758 760 762 763 765 766 767 768 769 770 771 772 773 775 776 778 780 783 784 785 787 789 789 790 790 790 791 790 790 791 792 793 794 795 797 798 799 800 800 801 802 803 803 803 802 802 801 801 800 800 799 799 798 797 796 795 794 793 792 791 790 788 787 785 783
700 704 708 711 714 717 720 723 725 728 731 733 735 738 740 743 746 748 750 752 754 757 758 760 762 763 764 765 766 766 766 767 769 770 772 773 775 777 778 780 781 783 784 785 785 785 786 786 786 787 788 789 791 792 793 794 795 795 796 797 798 799 800 800 799 799 799 798 798 797 797 796 795 794 793 792 791 790 788 786 785 784 783 781 779
699 702 705 708 712 715 717 720 722 725 727 729 732 734 737 740 742 744 747 749 751 753 755 757 759 759 760 761 762 762 762 762 764 765 767 769 770 771 773 775 776 778 780 780 781 782 782 783 783 784 786 787 788 789 790 791 791 792 793 794 795 796 796 796 796 797 797 796 796 796 795 794 793 791 790 789 788 786 785 784 782 782 780 778 775
696 699 702 705 708 711 714 717 719 721 724 726 728 731 734 736 738 741 743 745 747 750 751 753 754 755 756 757 758 758 758 758 760 761 762 764 765 766 768 770 771 773 775 776 777 779 779 780 781 782 783 784 785 786 787 788 789 789 790 791 792 793 793 794 794 794 794 794 794 793 793 791 790 789 788 787 786 784 783 782 781 779 777 775 772
694 697 700 702 705 708 711 713 716 718 721 723 725 727 729 731 734 736 738 740 743 745 747 748 749 751 752 753 754 754 754 754 756 757 757 759 761 762 764 765 767 769 771 772 774 776 777 778 779 780 781 782 783 784 784 785 786 787 788 789 790 790 791 792 792 792 792 792 792 791 790 789 788 787 786 785 784 784 783 781 779 777 776 773 769
692 694 697 700 703 705 707 710 713 715 718 720 722 724 725 728 730 731 733 736 739 741 742 744 745 746 748 749 749 749 749 750 752 753 754 755 756 758 759 761 763 765 767 769 771 772 774 775 776 778 779 780 781 782 782 783 784 785 786 787 787 788 789 789 789 790 790 790 790 789 788 787 786 786 785 784 783 783 782 780 778 776 774 771 768
690 692 694 697 700 702 704 707 709 712 714 717 719 721 722 724 725 726 728 730 733 735 737 738 740 741 743 744 744 745 745 746 747 748 749 750 751 753 755 757 759 760 762 764 767 769 770 772 774 776 777 778 779 780 780 781 783 783 784 785 786 787 787 787 788 788 788 788 788 787 786 786 786 785 784 783 782 782 781 779 777 775 772 770 767
689 691 693 695 697 700 702 704 706 708 710 713 715 717 718 720 721 723 724 726 728 730 732 733 735 737 738 739 740 740 741 742 742 743 745 746 748 749 751 752 754 756 758 761 763 766 768 770 772 773 774 776 777 778 779 780 781 782 783 784 785 786 786 786 786 787 787 787 787 786 786 786 785 784 783 782 782 781 779 778 776 774 772 770 767
688 690 692 694 695 697 700 702 704 705 707 708 711 713 716 718 719 721 722 723 725 727 729 730 732 733 735 735 736 737 738 739 739 741 742 744 745 746 748 749 751 753 756 758 761 764 767 768 769 770 771 773 774 775 776 778 779 780 781 783 785 785 785 785 785 786 786 786 786 786 786 785 784 783 783 782 781 779 778 776 775 773 771 769 767
687 689 691 693 695 696 699 700 702 703 704 706 708 711 714 716 718 719 721 722 724 726 727 728 730 731 733 733 734 735 736 737 738 739 740 742 743 744 746 748 749 752 753 756 759 762 764 765 766 767 768 770 771 773 774 776 778 780 781 783 784 784 784 784 784 785 785 785 786 786 785 784 783 782 782 781 779 778 777 775 774 773 770 768 766
687 689 691 693 694 696 698 699 700 702 703 705 708 710 712 715 716 718 719 721 722 724 725 726 728 729 730 732 733 733 734 735 736 737 738 740 741 742 744 746 748 750 752 755 757 760 761 762 764 765 766 768 769 771 773 775 777 779 781 782 782 782 783 783 783 783 784 784 784 784 784 783 782 782 781 780 778 778 777 776 774 772 770 768 766
687 689 691 693 694 696 697 698 699 701 702 704 707 708 710 712 714 716 718 720 721 723 724 725 726 727 728 730 731 732 733 734 735 736 737 738 740 741 743 746 748 750 752 754 756 758 760 762 763 764 765 767 769 771 773 775 777 778 779 780 781 781 782 782 782 782 783 783 783 783 783 782 782 781 780 779 778 778 777 775 773 772 770 768 765
688 689 691 693 694 696 696 697 698 699 701 703 705 707 709 711 712 714 717 720 721 723 724 724 725 726 727 728 729 731 732 734 735 736 737 738 740 741 743 746 749 751 753 755 756 757 760 761 763 765 766 767 768 770 772 773 775 776 777 778 779 779 780 780 780 780 781 781 782 782 782 781 780 779 779 778 778 777 776 774 772 771 769 767 765
689 689 691 693 695 696 697 697 698 699 700 702 704 706 708 710 712 714 717 719 721 723 724 724 725 726 726 727 729 730 732 733 735 736 737 738 740 742 744 746 749 752 754 755 757 759 761 762 763 765 765 766 768 769 770 771 772 774 775 777 778 778 777 777 777 777 778 780 781 780 780 780 779 778 778 777 776 775 773 772 771 769 767 766 764
689 690 692 693 695 696 697 697 698 699 700 702 704 706 708 710 712 714 717 719 720 722 724 725 725 726 727 728 729 731 732 733 735 737 739 741 742 744 746 747 750 753 754 755 757 760 762 765 766 766 766 767 768 768 769 770 771 772 774 776 777 777 776 775 775 776 777 778 779 779 779 779 778 778 777 776 775 774 772 770 769 768 766 765 763
690 691 692 694 695 696 697 697 698 699 701 703 705 707 708 710 712 714 716 718 720 722 724 726 727 728 729 730 731 732 733 735 737 738 741 744 744 746 748 750 752 754 756 757 759 760 762 766 768 767 766 767 768 769 769 771 771 772 773 774 776 777 776 774 774 775 776 777 778 778 778 778 777 777 776 774 773 772 771 769 768 766 765 764 763
693 693 693 694 695 696 697 698 698 699 701 703 705 707 709 711 713 715 716 718 720 722 724 726 728 729 730 732 733 733 734 736 739 741 744 746 747 746 748 751 754 755 758 760 762 762 763 766 769 768 767 768 769 769 769 770 771 771 772 774 775 777 776 774 774 774 775 776 777 777 777 777 776 775 774 773 772 770 769 768 767 766 765 764 763
696 695 695 695 696 697 698 699 700 701 702 704 705 707 710 712 714 716 718 719 722 724 725 728 730 731 732 734 735 734 735 737 740 742 746 749 749 748 749 752 756 758 760 762 765 766 767 770 771 770 769 768 769 769 769 770 771 772 773 774 775 776 775 774 774 774 775 775 776 776 776 775 775 774 772 771 770 769 768 767 766 765 765 764 763
700 698 697 697 698 699 700 701 702 703 704 706 708 709 711 713 715 717 719 721 723 726 728 730 732 734 735 737 737 737 737 740 742 745 748 750 751 752 753 755 757 759 761 764 766 768 769 771 771 770 769 768 769 769 770 771 773 773 774 774 775 775 775 774 773 774 774 775 775 775 775 774 773 772 771 770 769 768 768 767 766 765 765 764 763
703 702 701 701 701 702 702 703 704 705 706 708 710 712 714 715 717 718 720 722 724 727 730 732 733 734 736 738 738 739 740 743 747 748 749 751 752 754 756 758 759 761 763 765 767 768 769 769 770 770 770 770 770 771 772 773 773 774 774 774 774 774 774 774 774 774 774 775 775 774 774 773 772 771 770 769 768 768 767 766 766 765 764 763 762
705 705 704 705 705 705 705 706 706 707 708 710 712 714 717 718 719 720 722 724 726 727 729 732 734 736 737 738 739 739 741 745 748 750 750 752 754 757 759 761 761 763 764 766 767 768 770 770 770 770 771 771 772 772 773 773 774 774 775 774 774 774 774 774 774 774 774 774 774 773 772 771 771 770 769 768 767 767 766 766 765 764 764 763 761
708 707 707 708 709 709 708 708 709 709 710 712 714 716 718 720 722 723 725 726 728 729 730 733 735 737 738 740 740 740 741 745 748 750 752 753 756 758 760 762 763 764 766 766 767 769 770 771 771 772 772 773 774 774 775 775 775 775 775 775 775 775 774 774 774 774 773 773 772 771 771 770 769 768 768 767 767 766 766 765 765 764 763 762 760
710 710 710 711 712 713 712 711 711 711 712 713 716 718 720 722 724 726 728 729 731 732 733 735 737 738 740 741 742 742 744 747 750 751 752 754 757 759 761 763 764 766 767 768 768 769 770 772 773 774 774 775 775 775 776 775 775 775 775 775 775 775 774 774 773 773 772 771 771 770 769 769 768 768 767 767 766 765 765 764 764 763 762 761 759
713 712 712 714 716 717 716 715 714 713 714 715 718 720 722 724 726 728 730 732 734 735 737 738 739 739 741 742 744 745 747 749 751 751 752 754 758 760 762 764 766 767 769 769 770 771 772 774 775 776 776 776 776 776 776 776 776 776 775 775 775 774 774 773 773 772 771 770 769 769 768 768 767 767 767 766 766 765 764 763 762 762 761 760 758
714 714 714 716 718 720 720 719 718 716 716 717 720 723 725 726 728 730 732 734 736 737 739 740 741 742 743 744 746 747 749 750 752 753 754 756 759 761 763 765 766 768 769 770 771 772 773 775 776 776 776 777 777 777 777 777 777 776 776 775 775 774 774 773 772 771 770 769 768 768 768 768 767 767 766 765 765 764 763 762 762 761 760 758 757
716 716 717 718 720 722 724 723 721 719 719 720 723 725 727 729 730 731 733 735 737 739 741 742 744 745 747 748 749 750 751 752 753 754 756 759 761 762 764 766 768 769 770 771 772 773 774 775 776 777 777 777 777 778 778 777 777 777 776 776 775 774 773 773 772 771 770 769 769 768 768 768 767 767 766 765 764 764 763 762 761 760 759 757 756
718 719 719 720 722 725 727 727 724 722 721 723 725 728 730 732 733 734 735 737 739 741 743 745 746 748 750 751 752 753 754 754 755 757 759 761 763 765 767 768 770 771 772 773 774 775 775 776 777 777 778 778 778 778 778 778 778 777 777 776 776 774 774 773 772 771 770 770 769 769 768 768 767 767 766 765 764 763 762 761 760 759 758 756 755
720 720 721 723 725 728 730 730 728 725 724 725 728 731 733 735 736 738 738 739 741 743 745 747 748 750 752 754 756 757 758 759 760 761 763 765 766 768 770 771 772 773 774 775 776 776 777 777 778 778 779 779 779 779 779 779 778 778 777 777 776 775 774 773 772 771 771 770 769 769 768 768 767 766 765 764 763 762 761 760 759 758 756 755 754
721 722 723 725 728 731 734 733 731 729 727 728 730 733 736 738 739 741 742 742 743 745 747 749 751 753 755 757 759 761 762 764 765 766 767 769 770 771 772 774 774 774 775 776 777 778 778 779 779 780 780 780 780 780 780 780 779 779 778 777 777 776 775 773 772 771 770 769 769 768 768 767 767 766 765 764 763 762 760 759 758 756 755 754 753
725 725 726 728 732 735 737 736 734 731 730 731 733 735 738 740 742 743 745 746 747 748 750 752 754 756 758 760 762 764 765 767 769 770 771 772 773 773 774 775 776 776 777 778 779 779 780 780 781 781 781 781 781 781 781 781 780 780 779 778 777 775 774 773 772 771 770 769 768 768 767 766 766 765 764 763 762 761 760 758 756 755 753 752 752